Погода в Твери

Погода в Твери : погода сейчас, прогноз погоды и архив. Всё, что Вы хотите узнать о погоде в Твери!

Хотите узнать прогноз погоды в Твери? Тогда Вам сюда: Погода в Твери

Поиск расширенной информации на нашем сайте:

Другие новости

Новости СМИ2

Главная страница сайта

Новости сайта

03.07.2017

Напоминаем, что на нашем специализированном сайте Метеоцентр.Азия вы можете получить высокодетализированные автоматические прогнозы погоды по пунктам России, СНГ и мира в авиационном формате (включающие направление и скорость ветра, видимость, явления погоды, количество и форму облачности, нижнюю и верхнюю границу облачности).


Погода в Твери - сегодня

Время (UTC), дата Ветер
(°,м/с) 
Видим.   Явления Облачность Т
(°С)
Тd
(°С)
f(%) Тe
(°С)
Pmin
(гПа)
dP
(гПа)
Po
(мм)
O2
(г/м3)
Тmin Tmax R s Состояние
почвы
18 17.11.17 200 (Ю) 10 км    9/9 840 м 
[Sc]
+2.4 -1 78 +2  1014.2  -2  747  298    +2.4       
21 17.11.17 220 (ЮЗ) 10 км  слаб. дождь  10/10 540 м 
[Ns]
+2.5 +0.4 86 +2  1014  -0.2  747  298           
00 18.11.17 210 (ЮЗ) 10 км  {дождь}  10/10 330 м 
[St]
+2.5 +0.5 87 +3  1014.4  0.4  747  298           
03 18.11.17 200 (Ю) 10 км    9/9 1000 м 
[Sc]
+2.1 +0.1 87 +1  1014.6  0.2  747  299  +1.6    0.1     
06 18.11.17 210 (ЮЗ) 10 км    8/8 900 м 
[Sc]
+1.7 -0.4 86 +2  1015.3  0.7  748  300  +1.6    0.1     
09 18.11.17 210 (ЮЗ) 10 км    9/9 700 м 
[Sc]
+2.8 -1.4 74 +2  1015.2  -0.1  748  298           
12 18.11.17 210 (ЮЗ) 10 км    9/9 700 м 
[Sc]
+2.5 -2.4 70 +2  1014.6  -0.6  747  299           
15 18.11.17 200 (Ю) 10 км    9/9 800 м 
[Sc]
+2 -3 69 +1  1014.6  -0.1  747  299           
18 18.11.17 200 (Ю) 10 км    9/9 870 м 
[Sc]
+1.7 -3.7 67 +2  1013.9  -0.6  747  299    +2.9       
21 18.11.17 190 (Ю) 10 км    3/3 1500 м 
[Sc]
-0.3 -4.5 73 1013.4  -0.7  746  302           
00 19.11.17 100 (В) 10 км    8/0 средняя 
[Ac trans]
-1.2 -3.8 82 -1  1012.3  -1.1  746  302           
03 19.11.17 110 (В) 10 км  слаб. снег  10/10 900 м 
[Ns]
-0.3 -1.3 93 1010.6  -1.6  744  300  -2.6    0.0     
06 19.11.17 150 (ЮВ) 4000 м  слаб. снег  10/10 240 м 
[Frnb|Ns]
+0.4 -0.3 95 1009.9  -0.7  744  299  -2.6    0.3  равномерный
мокрый или
старый снег
100% 
09 19.11.17 160 (Ю) 4000 м  слаб. снег  10/10 210 м 
[Frnb|Ns]
+0.7 -0.1 94 1009.2  -0.7  743  299           
12 19.11.17 160 (Ю) 10 км  слаб. снег  10/10 240 м 
[Frnb|Ns]
+0.8 -0.1 94 1008  -1.2  742  298           
15 19.11.17 140 (ЮВ) 10 км  слаб. снег  10/10 240 м 
[Frnb|Ns]
+0.3 -0.3 96 1007.6  -0.4  742  299         
18 19.11.17 130 (ЮВ) 4000 м  слаб. снег  10/10 120 м 
[Frnb|Ns]
+0.2 -0.3 96 -1  1006.3  -1.2  741  298    +1.2     
21 19.11.17 120 (ЮВ) 10 км  {снег}  10/10 210 м 
[St]
+0.3 -0.2 96 +1  1005.7  -0.6  741  298           
00 20.11.17 190 (Ю) 10 км  {снег}  10/10 180 м 
[St]
+0.5 +0 96 +1  1005.5  -0.1  741  298           
03 20.11.17 200 (Ю) 10 км  {снег}  9/9 540 м 
[Sc]
+0.5 -0.5 93 +1  1006.6  741  298  +0.1    0.8     
06 20.11.17 210 (ЮЗ) 10 км  {снег}  9/9 840 м 
[Sc]
+0.8 -0.5 91 1008.4  1.8  743  298  +0.1    0.4  равномерный
мокрый или
старый снег
100% 
09 20.11.17 200 (Ю) 10 км    10/10 360 м 
[St]
+1.5 -0.1 89 +2  1010.2  1.9  744  298           
12 20.11.17 180 (Ю) 10 км    10/10 400 м 
[St]
+2 -0.1 86 +3  1010.7  0.5  745  298           
15 20.11.17 190 (Ю) 10 км    9/9 480 м 
[Sc]
+1.4 -0.8 85 +2  1011.6  0.8  745  299           
18 20.11.17 150 (ЮВ) 10 км    9/9 600 м 
[Sc]
+0.7 -0.9 89 1011.9  0.2  745  300    +2.1       
Время (UTC), дата Ветер
(°,м/с) 
Видим.   Явления Облачность Т
(°С)
Тd
(°С)
f(%) Тe
(°С)
Pmin
(гПа)
dP
(гПа)
Po
(мм)
O2
(г/м3)
Тmin Tmax R s Состояние
почвы

Для получения пояснительной информации подведите курсор к названию столбца.

ПОГОДА в Твери - архив

Всё, что Вы хотите узнать о погоде в Твери - удобно и подробно!

Выберите нужную дату (начиная с 1 января 2015* года) и нажмите кнопку "Найти".
Будут отображены архивные сводки погоды по пункту Тверь, начиная с указанной даты.


Отображать данные в формате CSV (для использования в таблицах Excel)


Внимание! Наш архив погоды предназначен исключительно для личного некоммерческого использования в познавательных целях. Если Вам необходимы официальные справки о состоянии погоды (для производственных, юридических, коммерческих и т.п. целей), обращайтесь в органы Росгидромета.

*Примечание: данная дата относится к архиву по метеостанциям СССР (Россия, СНГ, Балтия).
Архив по метеостанциям Зарубежной Европы и Азии (кроме Китая) хранится 10 дней, по другим регионам земного шара (Китай, Африка, Америка, Австралия, Океания) - 1 день.

Тверь - район местоположения метеостанции


Название, широта, долгота, высота метеостанции:
Тверь (город) 56.8°ш. 35.7°д. 137 м над ур. моря [Российская Федерация]

Дополнительная информация

В oтличие oт бoльшинства пoгoдных сайтoв мы публикуем пoдрoбную метеoинфoрмацию в детальнoм прoфессиoнальнoм фoрмате.

Характеристики температуры и влажнoсти вoздуха измеряются на высoте 2 м в тени вдали oт зданий и деревьев.
Скoрoсть ветра измеряется на высoте 10 м (на урoвне рoста челoвека скoрoсть ветра ниже в 1.5-2 раза). Если метеoстанция нахoдится в гoрoде или в лесу, тo скoрoсть ветра занижена на 2-4 м/с пo сравнению с oткрытым местoм. Скoрoсть ветра над акватoриями крупных рек и oзёр, а также на вершинах хoлмoв на 2-5 м/с выше, чем в oбычных услoвиях.
Атмoсфернoе давление в разных тoчках местнoсти мoжет значительнo oтличаться oт давления на метеoстанции, в зависимoсти oт услoвий рельефа (при пoдъёме на 10 м давление пoнижается примернo на 1 мм рт.ст.).